View from above orbital plane
|
View from above satellite
|
Ground track
|
The orbit data is extracted from the following two-line orbital elements,
1 00694U 63047A 21019.76521450 .00000463 00000-0 44429-4 0 9992
2 00694 30.3593 139.6975 0585481 265.0813 88.2731 14.02741174867494
Epoch (UTC): | 19 January 2021 18:21:54 |
Eccentricity: | 0.0585481 |
inclination: | 30.3593° |
perigee height: | 459 km |
apogee height: | 1309 km |
right ascension of ascending node: | 139.6975° |
argument of perigee: | 265.0813° |
revolutions per day: | 14.02741174 |
mean anomaly at epoch: | 88.2731° |
orbit number at epoch: | 86749 |
The dashed part of the orbit path shows where the satellite is in the earth's shadow,
|
|